Location: Eitze
(52.9840°N, 9.6894°E)
Time: 05:59:16
(UTC+00:00)

Cosmos 1356 Rocket - Pass Details

Date: 19 May 2025
Orbit: 517 x 565 km, 81.2° (Epoch: 22 June)

Event Time Altitude Azimuth Distance (km) Brightness Sun altitude
Exits shadow 20:28:29 - 163° (SSE) 1,945 5.5 -8.4°
Reaches altitude 10° 20:28:43 10° 162° (SSE) 1,860 5.4 -8.4°
Maximum altitude 20:32:31 37° 95° (E) 884 4.0 -8.8°
Drops below altitude 10° 20:36:18 10° 27° (NNE) 1,860 6.4 -9.1°
Sets 20:38:35 0° 20° (NNE) 2,754 7.4 -9.3°
